Location: Cormont
(50.5693°N, 1.7416°E)
Time: 14:23:18
(UTC+00:00)

Cosmos 1242 Rocket - Pass Details

Date: 21 October 2019
Orbit: 449 x 488 km, 81.2° (Epoch: 17 November)

Event Time Altitude Azimuth Distance (km) Brightness Sun altitude
Rises 18:02:38 0° 340° (NNW) 2,576 6.5 -12.3°
Reaches altitude 10° 18:04:52 10° 332° (NNW) 1,689 5.7 -12.6°
Maximum altitude 18:08:16 35° 265° (W) 801 4.4 -13.2°
Drops below altitude 10° 18:11:38 10° 199° (SSW) 1,667 5.5 -13.7°
Sets 18:13:49 0° 190° (S) 2,538 6.3 -14.0°
